Change the Weather History Date:

Friday, August 23, 2013

  Actual Average Record
Temperature  
Mean Temperature 83 °F 81 °F  
Max Temperature 93 °F 92 °F 103 °F (2007)
Min Temperature 72 °F 70 °F 55 °F (1956)
Cooling Degree Days 18    
Growing Degree Days 33 (Base 50)    
Moisture  
Dew Point 72 °F    
Average Humidity 69    
Maximum Humidity 93    
Minimum Humidity 44    
Precipitation  
Precipitation T in 0.10 in 1.51 in (1992)
Month to date precipitation 3.87 2.50  
Year to date precipitation 38.67 35.07  
Sea Level Pressure  
Sea Level Pressure 30.03 in    
Wind  
Wind Speed 3 mph (SE)    
Max Wind Speed 10 mph    
Max Gust Speed 12 mph    
Visibility 10 miles    
Events Thunderstorm    
T = Trace of Precipitation, MM = Missing Value Source: NWS Daily Summary

Daily Weather History Graph

Daily Weather History Graph

Search for Another Location

Airport or City:

Trip Planner

Search our weather history database for the weather conditions in past years. The results will help you decide how hot, cold, wet, or windy it might be!

Date:

Astronomy

Aug. 23, 2013 Rise Set
Actual Time 6:18 AM CDT 7:26 PM CDT
Civil Twilight 5:53 AM CDT 7:52 PM CDT
Nautical Twilight 5:22 AM CDT 8:22 PM CDT
Astronomical Twilight 4:50 AM CDT 8:54 PM CDT
Moon 8:58 PM CDT (8/23) 9:01 AM CDT (8/23)
Length of Visible Light 13h 59m
Length of Day
13h 07m
Waning Gibbous, 91% of the Moon is Illuminated
Aug 23
Waning Gibbous
Aug 28
Last Quarter
Sep 5
New
Sep 12
First Quarter
Sep 19
Full

Hourly Weather History & Observations

Time (CDT) Temp. Heat Index Dew Point Humidity Pressure Visibility Wind Dir Wind Speed Gust Speed Precip Events Conditions
12:53 AM 75.0 °F - 72.0 °F 90% 30.05 in 10.0 mi Calm Calm - N/A   Clear
1:53 AM 73.9 °F - 72.0 °F 93% 30.05 in 10.0 mi Calm Calm - N/A   Clear
2:53 AM 73.9 °F - 71.1 °F 91% 30.03 in 10.0 mi NE 3.5 mph - N/A   Clear
3:53 AM 75.0 °F - 71.1 °F 87% 30.03 in 10.0 mi SE 4.6 mph - N/A   Clear
4:53 AM 73.0 °F - 71.1 °F 93% 30.02 in 10.0 mi Calm Calm - N/A   Clear
5:53 AM 73.0 °F - 70.0 °F 90% 30.04 in 10.0 mi Calm Calm - N/A   Clear
6:53 AM 73.0 °F - 71.1 °F 93% 30.05 in 8.0 mi Calm Calm - N/A   Clear
7:53 AM 77.0 °F - 72.0 °F 84% 30.07 in 10.0 mi Calm Calm - N/A   Clear
8:27 AM 77.0 °F - 73.4 °F 89% 30.08 in 10.0 mi SSE 3.5 mph - N/A   Scattered Clouds
8:53 AM 79.0 °F - 73.0 °F 82% 30.07 in 10.0 mi Variable 3.5 mph - N/A   Clear
9:27 AM 80.6 °F 85.4 °F 73.4 °F 79% 30.08 in 10.0 mi Calm Calm - N/A   Mostly Cloudy
9:39 AM 82.4 °F 88.2 °F 73.4 °F 74% 30.08 in 10.0 mi Calm Calm - N/A   Scattered Clouds
9:53 AM 82.0 °F 87.4 °F 73.0 °F 74% 30.09 in 10.0 mi Calm Calm - N/A   Partly Cloudy
10:53 AM 84.0 °F 90.2 °F 73.0 °F 69% 30.07 in 10.0 mi East 5.8 mph - N/A   Clear
11:53 AM 87.1 °F 92.8 °F 71.1 °F 59% 30.06 in 10.0 mi East 6.9 mph - N/A   Clear
12:53 PM 89.1 °F 96.0 °F 72.0 °F 57% 30.04 in 10.0 mi ENE 8.1 mph - N/A   Clear
1:53 PM 90.0 °F 96.4 °F 71.1 °F 54% 30.02 in 10.0 mi Variable 3.5 mph - N/A   Clear
2:53 PM 90.0 °F 94.5 °F 69.1 °F 50% 30.00 in 10.0 mi Calm Calm - N/A   Partly Cloudy
3:53 PM 93.0 °F 97.4 °F 68.0 °F 44% 29.99 in 10.0 mi Calm Calm - N/A   Partly Cloudy
4:53 PM 91.0 °F 96.6 °F 70.0 °F 50% 29.98 in 10.0 mi South 6.9 mph - N/A   Scattered Clouds
5:53 PM 90.0 °F 96.4 °F 71.1 °F 54% 29.98 in 10.0 mi South 8.1 mph - N/A   Mostly Cloudy
6:53 PM 86.0 °F 93.0 °F 73.0 °F 65% 29.98 in 10.0 mi SW 3.5 mph - N/A Thunderstorm Partly Cloudy
7:32 PM 82.4 °F 89.5 °F 75.2 °F 79% 30.00 in 10.0 mi Calm Calm - N/A   Clear
7:53 PM 82.9 °F 88.0 °F 72.0 °F 69% 30.00 in 10.0 mi ENE 8.1 mph - N/A   Scattered Clouds
8:53 PM 81.0 °F 85.2 °F 72.0 °F 74% 30.02 in 10.0 mi Calm Calm - 0.00 in   Clear
9:53 PM 78.1 °F - 73.0 °F 84% 30.02 in 10.0 mi Calm Calm - N/A   Clear
10:53 PM 77.0 °F - 72.0 °F 84% 30.03 in 10.0 mi Calm Calm - N/A   Clear
11:53 PM 77.0 °F - 72.0 °F 84% 30.04 in 10.0 mi Calm Calm - N/A   Clear